Вернуться в каталог

SL-8 R/B

АктивенLEO
NORAD 11112·ROCKET BODY·🇷🇺 Russia

Запущен Nov 16, 1978 с Plesetsk Cosmodrome

Loading…

Ближайшие Пролёты (ближайшие 24 часа)

TLE

СвежийSource: Space-Track

Эпоха: Sep 14, 2026, 10:26 UTC

1 11112U 78105B   26257.43515037  .00000128  00000-0  49974-4 0  9995
2 11112  74.0283  69.5169 0032273 125.9497 234.4659 14.38848733504676

Отслеживайте SL-8 R/B в реальном времени с AllMySat

Download on the App Store